TimeEDT,TemperatureF,Dew PointF,Humidity,Sea Level PressureIn,VisibilityMPH,Wind Direction,Wind SpeedMPH,Gust SpeedMPH,PrecipitationIn,Events,Conditions,WindDirDegrees,DateUTC
12:54 AM,61.0,57.0,87,30.10,10.0,East,9.2,-,N/A,,Overcast,90,2013-05-20 04:54:00
1:54 AM,61.0,55.9,83,30.09,10.0,ENE,6.9,-,N/A,,Overcast,70,2013-05-20 05:54:00
2:54 AM,61.0,57.0,87,30.08,10.0,NNE,4.6,-,N/A,,Overcast,30,2013-05-20 06:54:00
3:54 AM,60.1,57.0,90,30.07,8.0,ENE,9.2,-,N/A,,Overcast,70,2013-05-20 07:54:00
4:54 AM,61.0,57.0,87,30.06,10.0,NE,3.5,-,N/A,,Overcast,50,2013-05-20 08:54:00
5:54 AM,60.1,57.0,90,30.07,9.0,Calm,Calm,-,N/A,,Overcast,0,2013-05-20 09:54:00
6:54 AM,61.0,57.0,87,30.08,8.0,Calm,Calm,-,N/A,,Overcast,0,2013-05-20 10:54:00
7:54 AM,60.8,57.2,88,30.08,6.0,Calm,Calm,-,N/A,,Overcast,0,2013-05-20 11:54:00
8:54 AM,62.1,59.0,90,30.10,5.0,SE,4.6,-,N/A,,Overcast,140,2013-05-20 12:54:00
9:54 AM,62.6,60.8,94,30.09,5.0,SSE,4.6,-,N/A,,Overcast,150,2013-05-20 13:54:00
10:32 AM,64.4,60.8,88,30.07,6.0,ESE,3.5,-,N/A,,Haze,110,2013-05-20 14:32:00
10:54 AM,68.0,61.0,78,30.06,9.0,Variable,3.5,-,N/A,,Overcast,0,2013-05-20 14:54:00
11:01 AM,68.0,60.8,78,30.06,10.0,Variable,3.5,-,N/A,,Overcast,0,2013-05-20 15:01:00
11:54 AM,71.1,62.1,73,30.06,10.0,Calm,Calm,-,N/A,,Overcast,0,2013-05-20 15:54:00
12:54 PM,72.0,63.0,73,30.03,10.0,ESE,6.9,-,N/A,,Mostly Cloudy,110,2013-05-20 16:54:00
1:54 PM,73.9,62.1,66,30.02,10.0,Calm,Calm,-,N/A,,Mostly Cloudy,0,2013-05-20 17:54:00
2:09 PM,75.2,62.6,65,30.02,10.0,Calm,Calm,-,N/A,,Scattered Clouds,0,2013-05-20 18:09:00
2:43 PM,75.2,64.4,69,30.01,10.0,ESE,6.9,-,N/A,,Mostly Cloudy,110,2013-05-20 18:43:00
2:54 PM,77.0,64.0,64,30.00,10.0,ESE,6.9,-,N/A,,Mostly Cloudy,110,2013-05-20 18:54:00
3:05 PM,78.8,64.4,61,30.00,10.0,Variable,3.5,-,N/A,,Scattered Clouds,0,2013-05-20 19:05:00
3:54 PM,78.1,64.0,62,29.99,10.0,Calm,Calm,-,N/A,,Partly Cloudy,0,2013-05-20 19:54:00
4:54 PM,80.1,64.0,58,29.96,10.0,ESE,8.1,-,N/A,,Partly Cloudy,110,2013-05-20 20:54:00
5:54 PM,79.0,64.0,60,29.95,10.0,SE,5.8,-,N/A,,Partly Cloudy,140,2013-05-20 21:54:00
6:54 PM,79.0,63.0,58,29.94,10.0,South,5.8,-,N/A,,Clear,170,2013-05-20 22:54:00
7:54 PM,77.0,63.0,62,29.94,10.0,South,6.9,-,N/A,,Clear,170,2013-05-20 23:54:00
8:54 PM,75.0,62.1,64,29.95,10.0,South,6.9,-,N/A,,Clear,190,2013-05-21 00:54:00
9:54 PM,73.4,62.6,69,29.96,10.0,Variable,5.8,-,N/A,,Clear,0,2013-05-21 01:54:00
10:54 PM,71.1,63.0,75,29.95,10.0,ENE,8.1,-,N/A,,Clear,60,2013-05-21 02:54:00
11:54 PM,66.9,62.1,84,29.96,10.0,Calm,Calm,-,N/A,,Clear,0,2013-05-21 03:54:00